TimeCST,TemperatureF,Dew PointF,Humidity,Sea Level PressureIn,VisibilityMPH,Wind Direction,Wind SpeedMPH,Gust SpeedMPH,PrecipitationIn,Events,Conditions,WindDirDegrees,DateUTC
12:15 AM,25.0,21.2,86,30.25,10.0,Calm,Calm,-,N/A,,Clear,0,2013-03-02 06:15:00
12:35 AM,25.3,21.2,84,30.24,10.0,Calm,Calm,-,N/A,,Clear,0,2013-03-02 06:35:00
12:55 AM,25.5,21.6,85,30.23,10.0,Calm,Calm,-,N/A,,Clear,0,2013-03-02 06:55:00
1:15 AM,24.3,20.3,85,30.23,10.0,Calm,Calm,-,N/A,,Clear,0,2013-03-02 07:15:00
1:35 AM,23.9,19.9,85,30.23,7.0,Calm,Calm,-,N/A,,Clear,0,2013-03-02 07:35:00
1:55 AM,23.5,20.3,87,30.23,5.0,Calm,Calm,-,N/A,,Clear,0,2013-03-02 07:55:00
2:15 AM,22.1,18.7,87,30.25,5.0,Calm,Calm,-,N/A,,Mostly Cloudy,0,2013-03-02 08:15:00
2:35 AM,25.2,21.9,87,30.22,7.0,Calm,Calm,-,N/A,,Overcast,0,2013-03-02 08:35:00
2:55 AM,26.1,22.8,88,30.22,7.0,Calm,Calm,-,N/A,,Overcast,0,2013-03-02 08:55:00
3:15 AM,26.6,23.4,88,30.21,7.0,Calm,Calm,-,N/A,,Overcast,0,2013-03-02 09:15:00
3:35 AM,27.3,23.5,86,30.20,10.0,Calm,Calm,-,N/A,,Overcast,0,2013-03-02 09:35:00
3:55 AM,28.0,24.6,87,30.19,7.0,SSW,3.5,-,N/A,,Overcast,210,2013-03-02 09:55:00
4:15 AM,30.2,25.0,81,30.19,10.0,Calm,Calm,-,N/A,,Overcast,0,2013-03-02 10:15:00
4:35 AM,30.4,25.2,81,30.19,10.0,Calm,Calm,-,N/A,,Overcast,0,2013-03-02 10:35:00
4:55 AM,30.0,26.4,86,30.19,10.0,Calm,Calm,-,N/A,,Overcast,0,2013-03-02 10:55:00
5:15 AM,30.6,26.8,86,30.18,10.0,Calm,Calm,-,N/A,,Overcast,0,2013-03-02 11:15:00
5:35 AM,32.2,26.4,79,30.17,10.0,SSW,4.6,-,N/A,,Overcast,200,2013-03-02 11:35:00
5:55 AM,32.9,26.2,76,30.17,10.0,SW,4.6,-,N/A,,Overcast,220,2013-03-02 11:55:00
6:15 AM,33.8,26.1,73,30.16,10.0,SSW,9.2,-,N/A,,Overcast,210,2013-03-02 12:15:00
6:35 AM,34.2,26.2,73,30.15,10.0,SSW,8.1,-,N/A,,Overcast,210,2013-03-02 12:35:00
6:55 AM,34.3,26.2,72,30.15,10.0,SW,8.1,-,N/A,,Overcast,220,2013-03-02 12:55:00
7:15 AM,34.2,26.2,73,30.16,10.0,SW,8.1,-,N/A,,Overcast,220,2013-03-02 13:15:00
7:35 AM,34.0,26.4,74,30.15,10.0,SSW,9.2,-,N/A,,Overcast,210,2013-03-02 13:35:00
7:55 AM,34.2,26.6,74,30.15,10.0,SW,3.5,-,N/A,,Overcast,230,2013-03-02 13:55:00
8:15 AM,34.9,27.1,73,30.15,10.0,SW,4.6,-,N/A,,Overcast,230,2013-03-02 14:15:00
8:35 AM,35.8,27.9,73,30.15,10.0,WSW,3.5,-,N/A,,Overcast,250,2013-03-02 14:35:00
8:55 AM,37.4,28.4,70,30.15,10.0,WSW,3.5,-,N/A,,Overcast,240,2013-03-02 14:55:00
9:15 AM,39.9,29.7,67,30.14,10.0,WSW,6.9,-,N/A,,Overcast,250,2013-03-02 15:15:00
9:35 AM,43.2,30.4,61,30.14,10.0,West,8.1,-,N/A,,Overcast,270,2013-03-02 15:35:00
9:55 AM,45.5,30.9,57,30.14,10.0,WNW,9.2,-,N/A,,Mostly Cloudy,290,2013-03-02 15:55:00
10:15 AM,47.5,31.6,54,30.14,10.0,WNW,8.1,-,N/A,,Scattered Clouds,290,2013-03-02 16:15:00
10:35 AM,50.7,31.8,48,30.13,10.0,WNW,9.2,-,N/A,,Clear,290,2013-03-02 16:35:00
10:55 AM,53.6,31.6,43,30.13,10.0,WNW,13.8,17.3,N/A,,Clear,300,2013-03-02 16:55:00
11:15 AM,55.4,31.3,40,30.13,10.0,WNW,12.7,-,N/A,,Clear,300,2013-03-02 17:15:00
11:35 AM,55.6,30.7,39,30.13,10.0,WNW,11.5,-,N/A,,Clear,300,2013-03-02 17:35:00
11:55 AM,57.0,30.6,37,30.12,10.0,NW,12.7,19.6,N/A,,Clear,320,2013-03-02 17:55:00
12:15 PM,57.4,29.8,35,30.11,10.0,NW,13.8,-,N/A,,Clear,320,2013-03-02 18:15:00
12:35 PM,57.4,30.0,35,30.10,10.0,NNW,17.3,21.9,N/A,,Clear,340,2013-03-02 18:35:00
12:55 PM,59.0,29.3,32,30.10,10.0,NW,17.3,21.9,N/A,,Clear,320,2013-03-02 18:55:00
1:15 PM,58.8,28.9,32,30.09,10.0,NNW,15.0,23.0,N/A,,Clear,330,2013-03-02 19:15:00
1:35 PM,59.5,28.4,31,30.08,10.0,NW,13.8,-,N/A,,Clear,310,2013-03-02 19:35:00
1:55 PM,59.9,28.0,30,30.07,10.0,WNW,13.8,21.9,N/A,,Clear,300,2013-03-02 19:55:00
2:15 PM,59.0,27.7,30,30.07,10.0,NW,12.7,20.7,N/A,,Clear,310,2013-03-02 20:15:00
2:35 PM,60.1,27.9,29,30.06,10.0,WNW,13.8,21.9,N/A,,Clear,300,2013-03-02 20:35:00
2:55 PM,60.4,27.5,29,30.05,10.0,WNW,15.0,21.9,N/A,,Clear,300,2013-03-02 20:55:00
3:15 PM,60.8,27.3,28,30.04,10.0,NW,12.7,20.7,N/A,,Clear,310,2013-03-02 21:15:00
3:35 PM,61.0,26.6,27,30.04,10.0,NW,13.8,20.7,N/A,,Clear,310,2013-03-02 21:35:00
3:55 PM,60.3,26.6,28,30.04,10.0,NW,13.8,-,N/A,,Clear,310,2013-03-02 21:55:00
4:15 PM,60.3,27.3,29,30.04,10.0,WNW,12.7,-,N/A,,Clear,300,2013-03-02 22:15:00
4:35 PM,59.2,27.3,30,30.04,10.0,WNW,9.2,-,N/A,,Clear,300,2013-03-02 22:35:00
4:55 PM,59.0,28.4,31,30.04,10.0,NW,13.8,18.4,N/A,,Scattered Clouds,310,2013-03-02 22:55:00
5:15 PM,58.5,28.0,31,30.04,10.0,NW,10.4,-,N/A,,Overcast,310,2013-03-02 23:15:00
5:35 PM,59.7,27.5,29,30.03,10.0,WNW,10.4,16.1,N/A,,Scattered Clouds,300,2013-03-02 23:35:00
5:55 PM,56.7,28.6,34,30.03,10.0,WNW,5.8,-,N/A,,Clear,300,2013-03-02 23:55:00
6:15 PM,51.8,29.7,43,30.03,10.0,Calm,Calm,-,N/A,,Clear,0,2013-03-03 00:15:00
6:35 PM,49.3,30.2,48,30.04,10.0,Calm,Calm,-,N/A,,Clear,0,2013-03-03 00:35:00
6:55 PM,47.8,30.4,51,30.03,10.0,Calm,Calm,-,N/A,,Clear,0,2013-03-03 00:55:00
7:15 PM,45.7,30.2,55,30.03,10.0,West,4.6,-,N/A,,Clear,280,2013-03-03 01:15:00
7:35 PM,45.0,30.7,57,30.03,10.0,West,4.6,-,N/A,,Clear,270,2013-03-03 01:35:00
7:55 PM,44.1,30.9,60,30.03,10.0,West,3.5,-,N/A,,Clear,260,2013-03-03 01:55:00
8:15 PM,43.9,30.7,60,30.02,10.0,Calm,Calm,-,N/A,,Clear,0,2013-03-03 02:15:00
8:35 PM,41.7,30.7,65,30.02,10.0,WSW,3.5,-,N/A,,Clear,250,2013-03-03 02:35:00
8:55 PM,41.4,30.7,66,30.02,10.0,Calm,Calm,-,N/A,,Clear,0,2013-03-03 02:55:00
9:15 PM,40.8,30.7,67,30.01,10.0,Calm,Calm,-,N/A,,Clear,0,2013-03-03 03:15:00
9:35 PM,40.3,30.9,69,30.01,10.0,Calm,Calm,-,N/A,,Clear,0,2013-03-03 03:35:00
9:55 PM,40.1,30.7,69,30.01,10.0,WSW,3.5,-,N/A,,Clear,250,2013-03-03 03:55:00
10:15 PM,39.7,30.7,70,30.01,10.0,Calm,Calm,-,N/A,,Clear,0,2013-03-03 04:15:00
10:35 PM,40.3,30.9,69,30.00,10.0,Calm,Calm,-,N/A,,Clear,0,2013-03-03 04:35:00
10:55 PM,40.1,30.9,70,29.99,10.0,Calm,Calm,-,N/A,,Clear,0,2013-03-03 04:55:00
11:15 PM,38.5,30.4,73,29.99,10.0,WSW,5.8,-,N/A,,Clear,250,2013-03-03 05:15:00
11:35 PM,40.1,31.1,70,29.98,10.0,Calm,Calm,-,N/A,,Clear,0,2013-03-03 05:35:00
11:55 PM,39.2,30.9,72,29.97,10.0,West,5.8,-,N/A,,Clear,280,2013-03-03 05:55:00